Location: Kerb�bon
(47.7970°N, 3.3487°W)
Time: 13:06:17
(UTC+00:00)

Cosmos 2082 Rocket - Pass Details

Date: 12 May 2021
Orbit: 834 x 852 km, 71.0° (Epoch: 18 June)

Event Time Altitude Azimuth Distance (km) Brightness Sun altitude
Rises 21:20:26 0° 333° (NNW) 3,393 7.0 -13.8°
Reaches altitude 10° 21:22:54 10° 337° (NNW) 2,455 5.9 -14.0°
Maximum altitude 21:28:31 67° 60° (ENE) 906 2.3 -14.6°
Enters shadow 21:32:05 23° 138° (SE) 1,719 3.2 -15.0°
